Regional Weather Roundup
Issued by NWS New Orleans/Baton Rouge, LA

Home | Current Version | Previous Version | Text Only | Print | Product List | Glossary On
Versions: 1 2 3 4 5 6 7 8 9 10 11 12 13 14 15 16 17 18 19 20 21 22 23 24 25 26 27 28 29 30 31 32 33 34 35 36 37 38 39 40 41 42 43 44 45 46 47 48 49 50
000
ASUS44 KLIX 240611
RWRLIX
NEW ORLEANS REGIONAL WEATHER ROUNDUP
NATIONAL WEATHER SERVICE NEW ORLEANS LA
100 AM CDT SUN MAY 24 2015

NOTE: "FAIR" INDICATES FEW OR NO CLOUDS BELOW 12,000 FEET WITH NO
      SIGNIFICANT WEATHER AND/OR OBSTRUCTIONS TO VISIBILITY.
      SKY/WX - SKY CONDITION AND SIGNIFICANT WEATHER.
      TMP - AIR TEMPERATURE.     DP    - DEWPOINT TEMPERATURE.
      RH  - RELATIVE HUMIDITY.   PRES  - PRESSURE.
      HI  - HEAT INDEX.          WCI   - WIND CHILL INDEX.

*  THESE STATIONS ARE NOT NWS OR FAA STATIONS AND ARE NOT UNDER
   NWS QUALITY CONTROL.

LAZ038-040-048-061>063-065>067-069-240700-
SOUTHEAST LOUISIANA

CITY           SKY/WX    TMP DP  RH WIND       PRES   REMARKS
N.O. AUDUBON     N/A     79  75  89 MISG        N/A
6HR MIN TEMP:  78; 6HR MAX TEMP:  82;

N.O. INTL ARPT PTCLDY    76  71  85 SE6       30.11S
6HR MIN TEMP:  76; 6HR MAX TEMP:  82;

N.O. LAKEFRONT PTCLDY    80  71  74 SE8       30.12S
6HR MIN TEMP:  80; 6HR MAX TEMP:  84;

SLIDELL        PTCLDY    72  71  97 CALM      30.11F
6HR MIN TEMP:  72; 6HR MAX TEMP:  81;

BATON ROUGE    PTCLDY    75  70  84 SE7       30.09F
6HR MIN TEMP:  75; 6HR MAX TEMP:  79;

BOOTHVILLE     CLEAR     78  74  87 SE6       30.12F
6HR MIN TEMP:  77; 6HR MAX TEMP:  81;

BELLE CHASSE   PTCLDY    77  72  84 SE7       30.11F
6HR MIN TEMP:  77; 6HR MAX TEMP:  81;

BOGALUSA*        N/A     70  67  88 CALM      30.14S
6HR MIN TEMP:  70; 6HR MAX TEMP:  82;

GALLIANO*      PTCLDY    80  72  76 CALM      30.11S
6HR MIN TEMP:  80; 6HR MAX TEMP:  83;

NEW ROADS*       N/A     73  72  94 CALM      30.09S
6HR MIN TEMP:  73; 6HR MAX TEMP:  75;

GONZALES*        N/A     75  75  99 CALM      30.09F
6HR MIN TEMP:  75; 6HR MAX TEMP:  82;

HAMMOND*       PTCLDY    75  68  78 CALM      30.13S
HOUMA*         PTCLDY    76  73  89 SE6       30.10F
6HR MIN TEMP:  76; 6HR MAX TEMP:  82;

PORT FOURCHON* PTCLDY    81  73  78 SE14G20   30.11S

$$

MSZ070-080>082-240700-
SOUTHERN MISSISSIPPI

CITY           SKY/WX    TMP DP  RH WIND       PRES   REMARKS
MCCOMB         CLEAR     70  69  97 SE5       30.12F
6HR MIN TEMP:  70; 6HR MAX TEMP:  75;

GULFPORT       PTCLDY    79  71  76 SE12      30.12F
6HR MIN TEMP:  78; 6HR MAX TEMP:  81;

BILOXI         PTCLDY    79  72  80 SE14      30.12F
6HR MIN TEMP:  79; 6HR MAX TEMP:  81;

PASCAGOULA     PTCLDY    70  69  97 CALM      30.14S
6HR MIN TEMP:  68; 6HR MAX TEMP:  80;


$$

COASTAL OBSERVATIONS
LAKE AND NEARSHORE STATIONS

STATION/POSITION TIME  TEMP    WIND        PRES    WAVE
                       AIR SEA DIR/SP/G            HT/PER
                 (UTC) (F)     (DEG/KT/KT) (MB)    (FT/S)
PASCAGOULA       0500   79     120/ 10/ 15 1020.1
WAVELAND YACHT   0500   80 80  140/ 15/ 19 1020.1
GRAND ISLE       0500   80 82   80/ 11/ 14 1019.7
SOUTHWEST PASS   0500   80 74  130/ 12/ 18 1020.4
NEW CANAL        0500   78 82  150/  1/  5 1018.9
SHELL BEACH      0500   79 83  130/ 13/ 16 1019.2

OFFSHORE STATIONS

STATION/POSITION TIME  TEMP    WIND        PRES    WAVE
                       AIR SEA DIR/SP/G            HT/PER
                 (UTC) (F)     (DEG/KT/KT) (MB)    (FT/S)
64 S DAUPHIN ISL 0550   79 80  120/ 17/ 21 1020.4    4/ 5

$$



USA.gov is the U.S. government's official web portal to all federal, state and local government web resources and services.